This demonstration page uses our WeatherBlox Daily Observations layout. Learn more.

Left ArrowRight Arrow

Hourly Observations for June 28, 2019

Temp ( °F °C ) Dew Point ( °F °C ) Humidity (%) Winds ( mph kmh ) Pressure ( in mb ) Visibility ( mi km ) Precip ( " mm )
12:53 am 00:53 Clear 72 22.2 71 21.7 97 97 N N/A 30.19 1022 10 16 N/A
1:53 am 01:53 Clear 71 21.7 70 21.1 96 96 N 6 9 30.18 1022 10 16 N/A
2:53 am 02:53 Clear 70 21.1 69 20.6 97 97 N N/A 30.17 1022 10 16 N/A
3:53 am 03:53 Clear 70 21.1 68 20 93 93 N N/A 30.17 1022 10 16 N/A
4:53 am 04:53 Clear 68 20 67 19.4 96 96 N N/A 30.16 1022 8 13 N/A
5:53 am 05:53 Clear 67 19.4 66 18.9 97 97 N N/A 30.17 1022 7 11 N/A
6:53 am 06:53 Sunny 68 20 67 19.4 96 96 N N/A 30.20 1023 7 11 N/A
7:07 am 07:07 Mostly Sunny 69 20.6 68 20 96 96 N N/A 30.20 1023 7 11 N/A
7:53 am 07:53 Sunny 74 23.3 70 21.1 88 88 WSW 3 6 30.21 1023 10 16 N/A
8:53 am 08:53 Sunny 77 25 71 21.7 82 82 N N/A 30.21 1023 10 16 N/A
9:53 am 09:53 Sunny 82 27.8 71 21.7 69 69 E 3 6 30.20 1023 10 16 N/A
10:53 am 10:53 Sunny 86 30 69 20.6 57 57 VRB 3 6 30.20 1023 10 16 N/A
11:53 am 11:53 Sunny 87 30.6 71 21.7 59 59 VRB 3 6 30.21 1023 10 16 N/A
12:53 pm 12:53 Sunny 89 31.7 71 21.7 55 55 WSW 7 11 30.19 1023 10 16 N/A
1:53 pm 13:53 Sunny 89 31.7 70 21.1 53 53 WSW 8 13 30.17 1022 10 16 N/A
2:53 pm 14:53 Sunny 89 31.7 69 20.6 52 52 WSW 8 13 30.16 1021 10 16 N/A
3:53 pm 15:53 Sunny 90 32.2 69 20.6 50 50 W 7 11 30.15 1021 10 16 N/A
4:53 pm 16:53 Mostly Sunny 89 31.7 69 20.6 52 52 W 8 13 30.13 1020 10 16 N/A
5:53 pm 17:53 Sunny 90 32.2 69 20.6 50 50 W 8 13 30.11 1020 10 16 N/A
6:53 pm 18:53 Sunny 89 31.7 68 20 50 50 VRB 5 7 30.11 1020 10 16 N/A
7:53 pm 19:53 Sunny 87 30.6 69 20.6 55 55 WSW 5 7 30.11 1020 10 16 N/A
8:53 pm 20:53 Sunny 79 26.1 73 22.8 82 82 N N/A 30.13 1020 10 16 N/A
9:53 pm 21:53 Clear 75 23.9 72 22.2 90 90 N N/A 30.14 1021 10 16 N/A
10:53 pm 22:53 Clear 73 22.8 71 21.7 94 94 N N/A 30.15 1021 10 16 N/A
11:53 pm 23:53 Clear 73 22.8 71 21.7 94 94 N N/A 30.13 1020 10 16 N/A

Powered by AerisWeather